[[{"header":{"parameterUnit":"m.s-1","parameterCategory":1,"la1":30.2991,"la2":30.254,"lo1":-89.0895,"lo2":-89.0444,"dy":0.0017,"dx":0.0017,"nx":28,"ny":28,"refTime":"2024-04-12T21:00:00:Z","depth":0,"parameterNumber":2,"parameterNumberName":"U-component_of_WINDS"},"data":[0,0,0,0,0,0,0,0,0,0,0,0,0,0,0,0,0,0,0,0,0,0,0,0,0,0,0,0,0,0,0,0,0,0,0,0,0,0,0,0,0,0,0,0,0,0,0,0,0,0,0,0,0,0,0,0,0,0,2.0148,2.0148,0,2.0179,2.018,2.018,2.0161,2.0161,2.016,2.0159,2.0195,2.0197,2.0199,0,0,0,0,0,0,0,0,0,0,0,0,0,2.0076,2.0077,2.0148,2.0148,2.0148,2.0179,2.018,2.018,2.0162,2.0161,2.0159,2.0158,2.0195,2.0197,2.0199,0,0,0,0,0,0,0,0,0,0,0,0,0,2.0107,2.0078,2.0148,2.0143,2.0143,2.0179,2.018,2.018,2.0162,2.016,2.0159,2.0158,2.0194,2.0196,2.0199,2.0243,0,0,2.0208,2.0209,0,0,0,0,0,0,0,0,2.0106,2.011,2.0143,2.0143,2.0143,2.0165,2.0168,2.0202,2.0162,2.0155,2.0159,2.0157,2.0187,2.019,2.0199,2.0245,2.0247,2.0208,2.0209,2.0211,2.0211,0,0,0,0,0,0,0,2.0103,2.0109,2.016,2.0144,2.0144,2.0141,2.0144,2.0174,2.0178,2.0155,2.0154,2.0158,2.0186,2.0196,2.02,2.0247,2.0208,2.021,2.0212,2.0213,2.0334,2.0336,0,0,0,0,0,0,2.0101,2.0107,2.0159,2.0161,2.012,2.0143,2.0146,2.0159,2.0178,2.0179,2.0159,2.0157,2.0192,2.0196,2.0201,2.0255,2.0211,2.0213,2.0215,2.0333,2.0334,2.0336,0,0,0,0,0,0,2.0099,2.0106,2.0158,2.0134,2.014,2.0146,2.0161,2.0161,2.0171,2.018,2.0181,2.0168,2.0191,2.0197,2.0233,2.0256,2.0214,2.0217,2.0331,2.0333,2.0335,2.0364,0,0,0,0,0,0,2.0097,2.0105,2.0121,2.0134,2.0141,2.0189,2.0162,2.0162,2.0175,2.0172,2.0189,2.0191,2.0191,2.0229,2.0236,2.0259,2.0219,2.0329,2.0332,2.0335,2.0361,2.0367,2.0372,0,0,0,0,0,2.0095,2.0128,2.0122,2.0128,2.0161,2.019,2.0194,2.0192,2.0177,2.0194,2.02,2.019,2.0252,2.0233,2.024,2.0265,2.0327,2.0331,2.0334,2.0358,2.0365,2.0372,0,0,0,0,0,0,2.0118,2.013,2.0123,2.0161,2.0174,2.0187,2.0207,2.02,2.0219,2.0216,2.0214,2.0218,2.0257,2.0264,2.0243,2.031,2.0288,2.0293,2.0303,2.031,2.0316,2.0313,2.0221,0,0,0,0,0,2.0128,2.0149,2.0158,2.0191,2.0198,2.0202,2.0214,2.0212,2.0226,2.0232,2.0241,2.0257,2.028,2.0296,2.0317,2.0362,2.0366,2.0382,2.0388,2.0392,2.0397,2.0423,2.0431,2.0348,2.0348,2.0348,0,0,2.0148,2.0156,2.017,2.0196,2.0206,2.023,2.0207,2.0232,2.025,2.0236,2.0271,2.0279,2.0296,2.0337,2.0356,2.0345,2.0421,2.0397,2.04,2.0403,2.0428,2.0436,2.0443,2.035,2.035,2.0349,0,0,2.0196,2.0204,2.0233,2.0244,2.0259,2.0262,2.0269,2.0282,2.0287,2.0321,2.0312,2.0335,2.0374,2.0388,2.04,2.0455,2.0448,2.0463,2.0492,2.0517,2.0524,2.053,2.0551,2.0559,2.0467,2.0467,2.0467,0,2.0219,2.0253,2.0249,2.0276,2.0288,2.0276,2.0307,2.0318,2.034,2.035,2.0337,2.0388,2.0399,2.0444,2.0457,2.0467,2.0477,2.0461,2.0523,2.0529,2.0534,2.0555,2.0563,2.0469,2.0469,2.0469,2.0469,0,2.0281,2.0305,2.0327,2.0348,2.0363,2.0391,2.0394,2.041,2.0407,2.0411,2.0448,2.0461,2.0486,2.0496,2.0494,2.0542,2.0535,2.0523,2.05,2.0544,2.0563,2.0571,2.0472,2.0471,2.047,2.047,0,0,2.0344,2.0364,2.0372,2.0382,2.0399,2.0419,2.0448,2.0471,2.0486,2.0502,2.0528,2.0562,2.0552,2.0566,2.0565,2.0587,2.0632,2.0572,2.0573,2.0584,2.0688,2.0698,2.0707,2.0627,2.0629,2.063,2.0687,0,2.0395,2.0443,2.0442,2.0488,2.0512,2.0501,2.0527,2.0541,2.0547,2.0569,2.0575,2.06,2.0584,2.0592,2.0614,2.0622,2.0653,2.0618,2.0653,2.0654,2.0649,2.0717,2.0726,2.078,2.0695,2.0696,2.0697,0,2.046,2.0478,2.0526,2.0541,2.0551,2.0574,2.0596,2.0617,2.0634,2.0636,2.0653,2.0649,2.068,2.0657,2.0702,2.0678,2.0692,2.0699,2.0701,2.0705,2.0679,2.0724,2.0797,2.0805,2.0708,2.0707,2.0707,0,2.0502,2.0539,2.0573,2.0582,2.06,2.0617,2.0626,2.0641,2.0656,2.0677,2.0687,2.0711,2.0724,2.0744,2.0748,2.073,2.0794,2.077,2.0799,2.0799,2.0813,2.0812,2.089,2.0821,2.082,2.082,2.082,0,2.0559,2.059,2.0593,2.0614,2.0648,2.0647,2.0682,2.069,2.0704,2.0728,2.0721,2.0744,2.0747,2.0771,2.0775,2.0813,2.0818,2.0823,2.0824,2.0824,2.0824,2.0834,2.0831,2.0822,2.0822,2.0821,2.0821,0,2.0613,2.0616,2.0653,2.0667,2.0672,2.0697,2.071,2.0731,2.0736,2.0767,2.0774,2.0783,2.0812,2.0817,2.0851,2.0853,2.0899,2.0895,2.0893,2.0893,2.0921,2.0919,2.101,2.1023,2.0944,2.0944,2.0945,0,2.0649,2.0672,2.0689,2.0704,2.0714,2.0738,2.0753,2.0754,2.077,2.0792,2.0812,2.0839,2.0861,2.0908,2.0919,2.0946,2.0943,2.0973,2.0947,2.0948,2.0946,2.0944,2.0948,2.0979,2.098,2.098,2.0981,0,2.0714,2.0714,2.0736,2.0758,2.0776,2.0795,2.0812,2.0825,2.0828,2.0848,2.0876,2.0893,2.0928,2.0957,2.0984,2.0995,2.099,2.0989,2.0997,2.0998,2.0996,2.0999,2.0908,2.0987,2.0986,2.0986,2.0985,2.0985,2.0761,2.0781,2.0797,2.0822,2.0835,2.0851,2.0872,2.088,2.0904,2.0931,2.0931,2.0963,2.0982,2.1017,2.103,2.1057,2.1047,2.1059,2.1062,2.1065,2.1069,2.0991,2.1062,2.1061,2.1061,2.1061,2.1061,0,2.0826,2.0836,2.0858,2.0883,2.0903,2.0894,2.0914,2.0931,2.0959,2.0977,2.0999,2.1033,2.1061,2.1074,2.1102,2.1121,2.112,2.1129,2.1128,2.1131,2.1074,2.1065,2.113,2.113,2.113,2.113,2.113,2.113,2.0863,2.0898,2.0901,2.0943,2.0953,2.0983,2.0995,2.1012,2.1025,2.1064,2.1086,2.1094,2.1111,2.1141,2.1167,2.117,2.1182,2.1193,2.1195,2.1142,2.1135,2.1128,2.1119,2.1195,2.1195,2.125,2.125,2.1251]},{"header":{"parameterUnit":"m.s-1","parameterCategory":1,"la1":30.2991,"la2":30.254,"lo1":-89.0895,"lo2":-89.0444,"dy":0.0017,"dx":0.0017,"nx":28,"ny":28,"refTime":"2024-04-12T21:00:00:Z","depth":0,"parameterNumber":3,"parameterNumberName":"V-component_of_WINDS"},"data":[0,0,0,0,0,0,0,0,0,0,0,0,0,0,0,0,0,0,0,0,0,0,0,0,0,0,0,0,0,0,0,0,0,0,0,0,0,0,0,0,0,0,0,0,0,0,0,0,0,0,0,0,0,0,0,0,0,0,-1.7762,-1.7762,0,-1.7761,-1.7761,-1.7761,-1.776,-1.776,-1.776,-1.776,-1.7758,-1.7758,-1.7758,0,0,0,0,0,0,0,0,0,0,0,0,0,-1.776,-1.776,-1.7762,-1.7762,-1.7762,-1.7761,-1.7761,-1.7761,-1.776,-1.776,-1.776,-1.776,-1.7758,-1.7758,-1.7758,0,0,0,0,0,0,0,0,0,0,0,0,0,-1.776,-1.776,-1.7762,-1.7761,-1.7761,-1.7761,-1.7761,-1.7761,-1.776,-1.776,-1.776,-1.776,-1.7758,-1.7758,-1.7758,-1.7758,0,0,-1.7758,-1.7758,0,0,0,0,0,0,0,0,-1.776,-1.776,-1.7761,-1.7761,-1.7761,-1.7761,-1.776,-1.776,-1.776,-1.7761,-1.776,-1.776,-1.7759,-1.7759,-1.7759,-1.7758,-1.7758,-1.7758,-1.7758,-1.7758,-1.7758,0,0,0,0,0,0,0,-1.776,-1.776,-1.7762,-1.7761,-1.7761,-1.776,-1.776,-1.776,-1.776,-1.776,-1.776,-1.776,-1.7759,-1.7759,-1.7759,-1.7758,-1.7758,-1.7758,-1.7758,-1.7758,-1.7755,-1.7755,0,0,0,0,0,0,-1.776,-1.776,-1.7762,-1.7762,-1.7761,-1.776,-1.776,-1.7761,-1.776,-1.776,-1.776,-1.776,-1.7759,-1.7759,-1.7758,-1.7757,-1.7758,-1.7758,-1.7758,-1.7755,-1.7755,-1.7755,0,0,0,0,0,0,-1.776,-1.7761,-1.7762,-1.7761,-1.7761,-1.776,-1.7761,-1.7761,-1.7761,-1.776,-1.776,-1.776,-1.7759,-1.7759,-1.7758,-1.7757,-1.7758,-1.7758,-1.7755,-1.7755,-1.7755,-1.7756,0,0,0,0,0,0,-1.776,-1.7761,-1.7761,-1.7761,-1.7761,-1.7762,-1.7761,-1.7761,-1.7761,-1.7761,-1.776,-1.776,-1.7759,-1.7758,-1.7758,-1.7757,-1.7757,-1.7755,-1.7755,-1.7755,-1.7756,-1.7756,-1.7756,0,0,0,0,0,-1.776,-1.7762,-1.7761,-1.7762,-1.7762,-1.7762,-1.7762,-1.7761,-1.7761,-1.7761,-1.776,-1.776,-1.7757,-1.7758,-1.7758,-1.7757,-1.7755,-1.7755,-1.7755,-1.7756,-1.7756,-1.7756,0,0,0,0,0,0,-1.7762,-1.7762,-1.7761,-1.7763,-1.7762,-1.7762,-1.7762,-1.7762,-1.7761,-1.7761,-1.776,-1.7759,-1.7758,-1.7758,-1.7758,-1.7756,-1.7756,-1.7756,-1.7757,-1.7757,-1.7757,-1.7757,-1.7757,0,0,0,0,0,-1.7762,-1.7763,-1.7762,-1.7764,-1.7764,-1.7763,-1.7763,-1.7762,-1.7762,-1.7761,-1.776,-1.7759,-1.7758,-1.7757,-1.7757,-1.7756,-1.7755,-1.7755,-1.7755,-1.7755,-1.7755,-1.7753,-1.7753,-1.7755,-1.7755,-1.7755,0,0,-1.7764,-1.7763,-1.7764,-1.7764,-1.7764,-1.7763,-1.7763,-1.7763,-1.7762,-1.7761,-1.776,-1.7759,-1.7758,-1.7757,-1.7756,-1.7756,-1.7754,-1.7755,-1.7755,-1.7755,-1.7753,-1.7753,-1.7753,-1.7755,-1.7755,-1.7755,0,0,-1.7765,-1.7766,-1.7766,-1.7766,-1.7765,-1.7764,-1.7764,-1.7764,-1.7763,-1.7762,-1.7761,-1.776,-1.7758,-1.7757,-1.7756,-1.7755,-1.7754,-1.7755,-1.7755,-1.7753,-1.7753,-1.7753,-1.7751,-1.7751,-1.7755,-1.7755,-1.7755,0,-1.7767,-1.7767,-1.7767,-1.7766,-1.7766,-1.7765,-1.7764,-1.7764,-1.7763,-1.7762,-1.7762,-1.7759,-1.7758,-1.7756,-1.7756,-1.7755,-1.7754,-1.7755,-1.7753,-1.7753,-1.7753,-1.7751,-1.7751,-1.7755,-1.7755,-1.7755,-1.7755,0,-1.7768,-1.7768,-1.7768,-1.7767,-1.7767,-1.7767,-1.7765,-1.7764,-1.7764,-1.7762,-1.7761,-1.7759,-1.7757,-1.7757,-1.7756,-1.7754,-1.7754,-1.7753,-1.7753,-1.7752,-1.7751,-1.7751,-1.7755,-1.7755,-1.7755,-1.7755,0,0,-1.7772,-1.777,-1.777,-1.7768,-1.7767,-1.7767,-1.7766,-1.7764,-1.7763,-1.7762,-1.776,-1.7758,-1.7757,-1.7756,-1.7755,-1.7753,-1.7751,-1.7753,-1.7753,-1.7752,-1.7748,-1.7748,-1.7747,-1.7751,-1.7751,-1.7751,-1.7747,0,-1.7773,-1.7772,-1.7771,-1.7769,-1.7769,-1.7767,-1.7766,-1.7764,-1.7763,-1.7761,-1.7759,-1.7757,-1.7757,-1.7756,-1.7754,-1.7752,-1.775,-1.7752,-1.7748,-1.7748,-1.7748,-1.7747,-1.7747,-1.7744,-1.7747,-1.7747,-1.7747,0,-1.7774,-1.7773,-1.7772,-1.7769,-1.7769,-1.7768,-1.7765,-1.7764,-1.7762,-1.776,-1.7759,-1.7757,-1.7755,-1.7755,-1.775,-1.7752,-1.775,-1.7748,-1.7748,-1.7747,-1.7747,-1.7745,-1.7743,-1.7743,-1.7746,-1.7746,-1.7746,0,-1.7776,-1.7774,-1.7773,-1.7772,-1.7769,-1.7768,-1.7767,-1.7764,-1.7763,-1.776,-1.7759,-1.7756,-1.7754,-1.7752,-1.7749,-1.7749,-1.7744,-1.7745,-1.7743,-1.7743,-1.7742,-1.7742,-1.7739,-1.7741,-1.7741,-1.7741,-1.7741,0,-1.7777,-1.7776,-1.7773,-1.7772,-1.7771,-1.7769,-1.7767,-1.7765,-1.7763,-1.7761,-1.7759,-1.7757,-1.7754,-1.7751,-1.7748,-1.7744,-1.7744,-1.7742,-1.7741,-1.7742,-1.7742,-1.7741,-1.774,-1.7741,-1.7741,-1.7741,-1.7741,0,-1.7779,-1.7777,-1.7775,-1.7772,-1.7771,-1.777,-1.7767,-1.7766,-1.7764,-1.7761,-1.776,-1.7757,-1.7753,-1.775,-1.7745,-1.7743,-1.7739,-1.7739,-1.774,-1.774,-1.7738,-1.7737,-1.7733,-1.7732,-1.7736,-1.7736,-1.7736,0,-1.7779,-1.7779,-1.7775,-1.7774,-1.7772,-1.777,-1.7769,-1.7766,-1.7764,-1.776,-1.7759,-1.7755,-1.7752,-1.7746,-1.7743,-1.7738,-1.7737,-1.7736,-1.7737,-1.7737,-1.7736,-1.7736,-1.7736,-1.7736,-1.7736,-1.7736,-1.7736,0,-1.778,-1.7779,-1.7777,-1.7774,-1.7772,-1.777,-1.7768,-1.7766,-1.7763,-1.7761,-1.7757,-1.7755,-1.7749,-1.7745,-1.774,-1.7738,-1.7736,-1.7736,-1.7735,-1.7735,-1.7736,-1.7735,-1.7739,-1.7736,-1.7736,-1.7736,-1.7736,-1.7736,-1.7781,-1.778,-1.7777,-1.7774,-1.7772,-1.7769,-1.7767,-1.7765,-1.7762,-1.7758,-1.7756,-1.7752,-1.7748,-1.7741,-1.7738,-1.7734,-1.7734,-1.7733,-1.7733,-1.7732,-1.7732,-1.7737,-1.7733,-1.7733,-1.7733,-1.7733,-1.7733,0,-1.7781,-1.7779,-1.7777,-1.7773,-1.777,-1.7769,-1.7766,-1.7764,-1.776,-1.7757,-1.7753,-1.7748,-1.7744,-1.774,-1.7734,-1.7732,-1.7731,-1.7731,-1.773,-1.773,-1.7733,-1.7734,-1.7731,-1.7731,-1.7731,-1.7731,-1.7731,-1.7731,-1.7781,-1.7778,-1.7777,-1.7772,-1.777,-1.7766,-1.7764,-1.7761,-1.7758,-1.7753,-1.7749,-1.7746,-1.7742,-1.7736,-1.7731,-1.773,-1.7728,-1.7728,-1.7726,-1.7729,-1.773,-1.773,-1.7731,-1.7728,-1.7728,-1.7723,-1.7723,-1.7723]}]]